Buffalo, MN

7:22 AM CDT on May 26, 2017 (GMT -0500)
Buffalo

Weather History for KCFE - March, 2014

Change the Weather History Date:

Wednesday, March 12, 2014

  Actual Average (KMIC) Record (KMIC)
Temperature  
Mean Temperature 22 °F -  
Max Temperature 28 °F 34 °F 71 °F (2016)
Min Temperature 15 °F 17 °F -6 °F (2009)
Degree Days  
Heating Degree Days 44    
Moisture  
Dew Point 12 °F    
Average Humidity 63    
Maximum Humidity 75    
Minimum Humidity 47    
Precipitation  
Precipitation 0.00 in - - ()
Sea Level Pressure  
Sea Level Pressure 30.10 in    
Wind  
Wind Speed 8 mph (NW)    
Max Wind Speed 14 mph    
Max Gust Speed 20 mph    
Visibility 10 miles    
Events      
Averages and records for this station are not official NWS values.
T = Trace of Precipitation, MM = Missing Value Source: NWS Daily Summary

Daily Weather History Graph

Daily Weather History Graph

Search for Another Location

Airport or City:

Trip Planner

Search our weather history database for the weather conditions in past years. The results will help you decide how hot, cold, wet, or windy it might be!

Date:

Astronomy

Mar. 12, 2014 Rise Set
Actual Time 7:33 AM CDT 7:17 PM CDT
Civil Twilight 7:04 AM CDT 7:46 PM CDT
Nautical Twilight 6:29 AM CDT 8:21 PM CDT
Astronomical Twilight 5:55 AM CDT 8:55 PM CDT
Moon 3:41 PM CDT (3/12) 5:13 AM CDT (3/12)
Length of Visible Light 12h 42m
Length of Day
11h 44m
Waxing Gibbous, 85% of the Moon is Illuminated
Mar 12
Waxing Gibbous
Mar 16
Full
Mar 23
Last Quarter
Mar 30
New
Apr 7
First Quarter

Hourly Weather History & Observations

Time (CDT) Temp. Windchill Dew Point Humidity Pressure Visibility Wind Dir Wind Speed Gust Speed Precip Events Conditions
12:15 AM 27.3 °F 16.1 °F 19.4 °F 72% 30.05 in 10.0 mi NW 13.8 mph 17.3 mph N/A   Clear
12:35 AM 26.6 °F 15.7 °F 18.7 °F 72% 30.05 in 10.0 mi NW 12.7 mph 16.1 mph N/A   Clear
12:56 AM 26.2 °F 16.4 °F 17.8 °F 70% 30.05 in 10.0 mi NW 10.4 mph 17.3 mph N/A   Clear
1:15 AM 25.5 °F 13.8 °F 16.5 °F 69% 30.05 in 10.0 mi NW 13.8 mph 19.6 mph N/A   Clear
1:35 AM 24.8 °F 15.3 °F 16.5 °F 71% 30.06 in 10.0 mi NW 9.2 mph - N/A   Clear
1:56 AM 24.3 °F 13.9 °F 16.3 °F 72% 30.06 in 10.0 mi NW 10.4 mph - N/A   Clear
2:15 AM 23.9 °F 12.3 °F 14.7 °F 68% 30.06 in 10.0 mi NW 12.7 mph 18.4 mph N/A   Clear
2:35 AM 23.2 °F 12.6 °F 14.0 °F 68% 30.06 in 10.0 mi NW 10.4 mph - N/A   Clear
2:56 AM 22.8 °F 12.2 °F 14.9 °F 72% 30.07 in 10.0 mi NW 10.4 mph - N/A   Clear
3:15 AM 22.3 °F 11.5 °F 13.8 °F 70% 30.08 in 10.0 mi NW 10.4 mph 16.1 mph N/A   Clear
3:35 AM 21.9 °F 10.4 °F 13.5 °F 70% 30.08 in 10.0 mi NW 11.5 mph 16.1 mph N/A   Clear
3:56 AM 21.2 °F 10.1 °F 12.9 °F 70% 30.08 in 10.0 mi NW 10.4 mph 16.1 mph N/A   Clear
4:15 AM 20.7 °F 10.2 °F 12.2 °F 70% 30.07 in 10.0 mi NNW 9.2 mph - N/A   Clear
4:35 AM 20.3 °F 9.0 °F 11.8 °F 70% 30.07 in 10.0 mi NW 10.4 mph - N/A   Clear
4:56 AM 19.4 °F 7.9 °F 11.1 °F 70% 30.08 in 10.0 mi NW 10.4 mph - N/A   Clear
5:15 AM 19.0 °F 10.0 °F 10.2 °F 69% 30.08 in 10.0 mi NW 6.9 mph 17.3 mph N/A   Clear
5:35 AM 18.5 °F 7.5 °F 9.3 °F 67% 30.09 in 10.0 mi NNW 9.2 mph - N/A   Clear
5:56 AM 18.0 °F 7.7 °F 8.6 °F 67% 30.10 in 10.0 mi NNW 8.1 mph - N/A   Clear
6:15 AM 17.4 °F 7.1 °F 7.7 °F 66% 30.10 in 10.0 mi NNW 8.1 mph - N/A   Clear
6:35 AM 17.1 °F 6.6 °F 7.7 °F 67% 30.10 in 10.0 mi NW 8.1 mph - N/A   Clear
6:56 AM 16.3 °F 7.8 °F 7.7 °F 69% 30.11 in 10.0 mi NW 5.8 mph - N/A   Clear
7:15 AM 15.6 °F 7.0 °F 7.7 °F 71% 30.11 in 10.0 mi NW 5.8 mph - N/A   Clear
7:35 AM 15.3 °F 6.6 °F 7.0 °F 70% 30.12 in 10.0 mi NW 5.8 mph - N/A   Clear
7:56 AM 15.1 °F 5.2 °F 6.8 °F 70% 30.13 in 10.0 mi NW 6.9 mph - N/A   Clear
8:15 AM 15.4 °F 4.6 °F 6.8 °F 69% 30.13 in 10.0 mi NW 8.1 mph - N/A   Clear
8:35 AM 16.0 °F 4.4 °F 7.2 °F 68% 30.13 in 10.0 mi NW 9.2 mph - N/A   Clear
8:56 AM 16.7 °F 4.5 °F 7.2 °F 66% 30.15 in 10.0 mi NNW 10.4 mph - N/A   Clear
9:15 AM 17.4 °F 7.1 °F 6.8 °F 63% 30.15 in 10.0 mi NNW 8.1 mph - N/A   Clear
9:36 AM 18.1 °F 6.3 °F 6.8 °F 61% 30.15 in 10.0 mi NNW 10.4 mph - N/A   Scattered Clouds
9:56 AM 18.3 °F 7.3 °F 7.3 °F 62% 30.15 in 10.0 mi NNW 9.2 mph - N/A   Clear
10:15 AM 19.0 °F 11.1 °F 7.5 °F 61% 30.15 in 10.0 mi NNW 5.8 mph - N/A   Clear
10:36 AM 19.8 °F 10.8 °F 7.9 °F 60% 30.15 in 10.0 mi NNW 6.9 mph - N/A   Clear
10:56 AM 21.2 °F 11.7 °F 9.0 °F 59% 30.15 in 10.0 mi North 8.1 mph - N/A   Clear
11:15 AM 21.6 °F 14.0 °F 9.7 °F 60% 30.15 in 10.0 mi North 5.8 mph - N/A   Clear
11:36 AM 23.0 °F 15.8 °F 10.8 °F 60% 30.15 in 10.0 mi NNE 5.8 mph - N/A   Clear
11:56 AM 23.0 °F 17.0 °F 10.4 °F 59% 30.14 in 10.0 mi North 4.6 mph - N/A   Clear
12:15 PM 24.1 °F - 10.9 °F 57% 30.14 in 10.0 mi Calm Calm - N/A   Clear
12:35 PM 23.9 °F - 11.5 °F 59% 30.14 in 10.0 mi Calm Calm - N/A   Clear
12:56 PM 25.3 °F 19.7 °F 9.7 °F 52% 30.14 in 10.0 mi NW 4.6 mph - N/A   Clear
1:15 PM 24.6 °F - 11.1 °F 57% 30.14 in 10.0 mi Calm Calm - N/A   Clear
1:35 PM 25.0 °F 19.3 °F 10.2 °F 54% 30.14 in 10.0 mi North 4.6 mph - N/A   Clear
1:56 PM 26.4 °F - 11.7 °F 54% 30.13 in 10.0 mi Calm Calm - N/A   Clear
2:15 PM 26.4 °F 20.9 °F 11.1 °F 53% 30.13 in 10.0 mi NW 4.6 mph - N/A   Clear
2:35 PM 25.7 °F - 7.9 °F 47% 30.12 in 10.0 mi Calm Calm - N/A   Clear
2:56 PM 27.0 °F 18.7 °F 10.0 °F 49% 30.11 in 10.0 mi West 8.1 mph - N/A   Scattered Clouds
3:15 PM 26.8 °F 22.8 °F 9.7 °F 49% 30.11 in 10.0 mi NW 3.5 mph - N/A   Scattered Clouds
3:36 PM 27.5 °F 20.2 °F 10.4 °F 49% 30.11 in 10.0 mi WNW 6.9 mph - N/A   Clear
3:56 PM 28.0 °F 21.7 °F 11.5 °F 50% 30.10 in 10.0 mi West 5.8 mph - N/A   Scattered Clouds
4:15 PM 26.2 °F 18.6 °F 9.0 °F 48% 30.09 in 10.0 mi West 6.9 mph - N/A   Scattered Clouds
4:36 PM 26.6 °F 22.6 °F 10.2 °F 50% 30.09 in 10.0 mi WSW 3.5 mph - N/A   Mostly Cloudy
4:55 PM 26.8 °F 20.2 °F 10.4 °F 50% 30.09 in 10.0 mi WSW 5.8 mph - N/A   Overcast
5:15 PM 26.6 °F 21.2 °F 10.2 °F 50% 30.08 in 10.0 mi West 4.6 mph - N/A   Overcast
5:36 PM 26.6 °F - 9.1 °F 48% 30.08 in 10.0 mi Calm Calm - N/A   Mostly Cloudy
5:55 PM 26.2 °F 22.1 °F 10.9 °F 52% 30.08 in 10.0 mi West 3.5 mph - N/A   Scattered Clouds
6:15 PM 25.5 °F 21.3 °F 11.7 °F 56% 30.08 in 10.0 mi SW 3.5 mph - N/A   Mostly Cloudy
6:36 PM 25.3 °F 19.7 °F 13.3 °F 60% 30.09 in 10.0 mi WSW 4.6 mph - N/A   Overcast
6:55 PM 25.3 °F 18.5 °F 12.9 °F 59% 30.08 in 10.0 mi WSW 5.8 mph - N/A   Overcast
7:15 PM 25.3 °F 19.7 °F 14.0 °F 62% 30.09 in 10.0 mi WSW 4.6 mph - N/A   Overcast
7:36 PM 25.0 °F 20.7 °F 14.0 °F 63% 30.09 in 10.0 mi WSW 3.5 mph - N/A   Mostly Cloudy
7:55 PM 24.8 °F - 14.2 °F 64% 30.09 in 10.0 mi Calm Calm - N/A   Overcast
8:15 PM 24.6 °F - 14.7 °F 66% 30.09 in 10.0 mi Calm Calm - N/A   Overcast
8:36 PM 24.1 °F - 14.4 °F 66% 30.09 in 10.0 mi Calm Calm - N/A   Overcast
8:55 PM 23.9 °F - 13.8 °F 65% 30.08 in 10.0 mi Calm Calm - N/A   Scattered Clouds
9:15 PM 23.7 °F 19.3 °F 13.6 °F 65% 30.06 in 10.0 mi South 3.5 mph - N/A   Clear
9:36 PM 23.2 °F - 13.5 °F 66% 30.07 in 10.0 mi Calm Calm - N/A   Clear
9:55 PM 21.9 °F - 14.0 °F 72% 30.06 in 10.0 mi Calm Calm - N/A   Clear
10:15 PM 21.2 °F 16.4 °F 14.0 °F 74% 30.06 in 10.0 mi SE 3.5 mph - N/A   Scattered Clouds
10:36 PM 21.2 °F - 14.0 °F 74% 30.05 in 10.0 mi Calm Calm - N/A   Mostly Cloudy
10:55 PM 21.2 °F - 14.0 °F 74% 30.04 in 10.0 mi Calm Calm - N/A   Overcast
11:15 PM 21.2 °F 16.4 °F 14.2 °F 74% 30.03 in 10.0 mi SE 3.5 mph - N/A   Overcast
11:36 PM 21.4 °F 16.6 °F 14.5 °F 75% 30.01 in 10.0 mi SE 3.5 mph - N/A   Overcast
11:55 PM 21.4 °F 16.6 °F 14.4 °F 74% 30.01 in 10.0 mi SSE 3.5 mph - N/A   Overcast